Location: De Greiden
(52.9496°N, 5.9137°E)
Time: 01:27:41
(UTC+00:00)

NOSS 3-4 (C) - Pass Details

Date: 24 January 2021
Orbit: 878 x 1335 km, 63.4° (Epoch: 16 February)

Event Time Altitude Azimuth Distance (km) Brightness Sun altitude
Rises 16:45:54 0° 254° (WSW) 3,509 8.8 -6.1°
Reaches altitude 10° 16:48:26 10° 260° (W) 2,603 7.3 -6.5°
Maximum altitude 16:54:15 47° 334° (NNW) 1,262 4.2 -7.3°
Drops below altitude 10° 17:00:39 10° 48° (NE) 2,860 5.4 -8.2°
Enters shadow 17:01:14 - 50° (NE) 3,063 5.5 -8.2°
